[[{"header":{"parameterUnit":"m.s-1","parameterCategory":2,"la1":30.2991,"la2":30.254,"lo1":-89.0895,"lo2":-89.0444,"dy":0.0017,"dx":0.0017,"nx":28,"ny":28,"refTime":"2024-10-05T09:00:00:Z","depth":"0","parameterNumber":2,"parameterNumberName":"U-component_of_CURRENTS"},"data":[0,0,0,0,0,0,0,0,0,0,0,0,0,0,0,0,0,0,0,0,0,0,0,0,0,0,0,0,0,0,0,0,0,0,0,0,0,0,0,0,0,0,0,0,0,0,0,0,0,0,0,0,0,0,0,0,0,0,-0.1919,-0.1919,0,-0.1938,-0.1938,-0.1938,-0.1917,-0.1916,-0.1916,-0.1915,-0.188,-0.188,-0.1879,0,0,0,0,0,0,0,0,0,0,0,0,0,-0.1842,-0.1843,-0.1919,-0.1919,-0.192,-0.1938,-0.1938,-0.1938,-0.1917,-0.1916,-0.1916,-0.1915,-0.188,-0.188,-0.1879,0,0,0,0,0,0,0,0,0,0,0,0,0,-0.1867,-0.1844,-0.1919,-0.1914,-0.1914,-0.1938,-0.1938,-0.1938,-0.1917,-0.1916,-0.1916,-0.1915,-0.1881,-0.188,-0.1879,-0.1891,0,0,-0.1877,-0.1877,0,0,0,0,0,0,0,0,-0.1865,-0.1869,-0.1914,-0.1914,-0.1914,-0.1927,-0.1898,-0.1921,-0.1917,-0.1913,-0.1915,-0.1915,-0.1894,-0.1892,-0.1893,-0.1889,-0.1888,-0.1877,-0.1877,-0.1876,-0.1876,0,0,0,0,0,0,0,-0.1864,-0.1868,-0.1923,-0.1915,-0.1915,-0.1904,-0.1906,-0.1902,-0.1904,-0.1913,-0.1912,-0.192,-0.1893,-0.1894,-0.1892,-0.1887,-0.1877,-0.1877,-0.1876,-0.1876,-0.1896,-0.1897,0,0,0,0,0,0,-0.187,-0.1867,-0.1923,-0.1924,-0.1891,-0.1906,-0.1909,-0.1921,-0.1905,-0.1903,-0.192,-0.1919,-0.1896,-0.1893,-0.1891,-0.1914,-0.1876,-0.1876,-0.1875,-0.1896,-0.1897,-0.1898,0,0,0,0,0,0,-0.1868,-0.1875,-0.1922,-0.1898,-0.1903,-0.1909,-0.1923,-0.1922,-0.1925,-0.1912,-0.1908,-0.1924,-0.1895,-0.1892,-0.1896,-0.1912,-0.1876,-0.1875,-0.1894,-0.1896,-0.1897,-0.1954,0,0,0,0,0,0,-0.1866,-0.1874,-0.1882,-0.1899,-0.1905,-0.1945,-0.1924,-0.1923,-0.1932,-0.193,-0.1914,-0.191,-0.1894,-0.1897,-0.1895,-0.1911,-0.1874,-0.1893,-0.1895,-0.1897,-0.1951,-0.1957,-0.1962,0,0,0,0,0,-0.1863,-0.188,-0.1882,-0.1888,-0.1917,-0.1946,-0.1948,-0.1946,-0.1934,-0.1943,-0.1932,-0.191,-0.1907,-0.1897,-0.1895,-0.1911,-0.1892,-0.1895,-0.1897,-0.1948,-0.1956,-0.1962,0,0,0,0,0,0,-0.1847,-0.188,-0.1882,-0.1907,-0.1929,-0.1944,-0.1951,-0.1952,-0.1951,-0.1944,-0.1924,-0.192,-0.1929,-0.1914,-0.1905,-0.1922,-0.1896,-0.1897,-0.1936,-0.1943,-0.1948,-0.1953,-0.1874,0,0,0,0,0,-0.1849,-0.1869,-0.1899,-0.1916,-0.193,-0.1941,-0.195,-0.1954,-0.1959,-0.1958,-0.1949,-0.1938,-0.1937,-0.1935,-0.193,-0.1942,-0.194,-0.195,-0.1956,-0.1961,-0.1963,-0.1976,-0.1983,-0.1905,-0.1905,-0.1905,0,0,-0.1844,-0.1867,-0.1876,-0.1914,-0.1926,-0.1956,-0.1943,-0.1965,-0.1986,-0.1954,-0.197,-0.1958,-0.1945,-0.1958,-0.196,-0.1947,-0.1987,-0.1963,-0.1968,-0.1967,-0.1979,-0.1987,-0.1994,-0.1906,-0.1906,-0.1906,0,0,-0.1853,-0.1869,-0.1892,-0.1917,-0.1949,-0.1964,-0.1974,-0.1997,-0.2002,-0.2021,-0.2003,-0.2006,-0.2001,-0.2001,-0.1998,-0.2034,-0.2017,-0.2029,-0.2062,-0.2075,-0.2081,-0.2087,-0.2116,-0.2123,-0.2032,-0.2032,-0.2032,0,-0.1845,-0.1881,-0.1902,-0.1935,-0.1957,-0.1971,-0.2003,-0.2019,-0.2038,-0.2049,-0.2031,-0.204,-0.2024,-0.2048,-0.2054,-0.2048,-0.2054,-0.2036,-0.2083,-0.2088,-0.2093,-0.2121,-0.2128,-0.2035,-0.2034,-0.2034,-0.2034,0,-0.1876,-0.1905,-0.1921,-0.1969,-0.1998,-0.2026,-0.206,-0.2082,-0.2086,-0.2099,-0.2121,-0.2107,-0.2109,-0.2108,-0.2088,-0.2118,-0.2113,-0.2089,-0.2066,-0.2105,-0.2131,-0.2138,-0.2039,-0.2038,-0.2037,-0.2036,0,0,-0.1853,-0.1928,-0.1932,-0.1963,-0.2018,-0.2047,-0.209,-0.2135,-0.2166,-0.2173,-0.221,-0.2201,-0.2187,-0.2183,-0.2166,-0.2175,-0.2214,-0.2145,-0.2144,-0.2175,-0.2258,-0.2258,-0.2266,-0.2196,-0.2197,-0.2198,-0.227,0,-0.1867,-0.193,-0.1968,-0.2026,-0.2061,-0.21,-0.2144,-0.2186,-0.221,-0.2249,-0.2245,-0.2264,-0.2219,-0.222,-0.2223,-0.2213,-0.2232,-0.2198,-0.2213,-0.2214,-0.2211,-0.2273,-0.2193,-0.225,-0.2276,-0.2278,-0.2278,0,-0.1879,-0.1924,-0.1981,-0.2063,-0.2083,-0.2118,-0.2192,-0.2234,-0.2293,-0.2312,-0.233,-0.233,-0.2344,-0.2299,-0.2309,-0.2288,-0.2276,-0.2271,-0.2273,-0.2255,-0.2227,-0.2211,-0.2262,-0.2239,-0.2289,-0.2288,-0.2287,0,-0.1847,-0.1931,-0.1975,-0.2002,-0.2095,-0.2126,-0.2171,-0.2241,-0.2285,-0.2345,-0.2381,-0.2397,-0.2406,-0.2394,-0.2372,-0.2341,-0.2396,-0.2351,-0.2352,-0.2353,-0.2278,-0.227,-0.2306,-0.2371,-0.2371,-0.2371,-0.2371,0,-0.1843,-0.1879,-0.196,-0.1985,-0.2045,-0.2112,-0.2176,-0.2228,-0.2307,-0.2365,-0.2396,-0.244,-0.2427,-0.2453,-0.2419,-0.2419,-0.2432,-0.2377,-0.2375,-0.2298,-0.2292,-0.2262,-0.2257,-0.2374,-0.2373,-0.2373,-0.2372,0,-0.1796,-0.1852,-0.1906,-0.1998,-0.2028,-0.2064,-0.217,-0.2218,-0.2298,-0.2377,-0.2397,-0.2477,-0.251,-0.2517,-0.252,-0.2484,-0.2448,-0.2479,-0.2402,-0.2389,-0.2347,-0.2348,-0.2372,-0.231,-0.2488,-0.2489,-0.2489,0,-0.1779,-0.1797,-0.189,-0.192,-0.1957,-0.2025,-0.2076,-0.2186,-0.2243,-0.2393,-0.2426,-0.2509,-0.2556,-0.2593,-0.2557,-0.2545,-0.2482,-0.2458,-0.2377,-0.2358,-0.2357,-0.2333,-0.2276,-0.2309,-0.2308,-0.2307,-0.2307,0,-0.1732,-0.1756,-0.18,-0.1856,-0.1908,-0.1979,-0.2059,-0.2112,-0.2247,-0.2328,-0.2437,-0.2499,-0.2574,-0.2551,-0.256,-0.2512,-0.2397,-0.244,-0.2429,-0.224,-0.2206,-0.214,-0.2267,-0.2299,-0.23,-0.23,-0.2301,-0.2301,-0.1681,-0.1691,-0.1736,-0.1784,-0.1845,-0.1904,-0.1923,-0.2035,-0.2125,-0.2237,-0.2368,-0.2457,-0.2503,-0.2508,-0.2477,-0.238,-0.2374,-0.2283,-0.2295,-0.2281,-0.219,-0.232,-0.2342,-0.2342,-0.2343,-0.2344,-0.2345,0,-0.1607,-0.1624,-0.1662,-0.1714,-0.1734,-0.1799,-0.1886,-0.1894,-0.1959,-0.2124,-0.2218,-0.2372,-0.2363,-0.2384,-0.2336,-0.2256,-0.216,-0.2183,-0.2108,-0.206,-0.2179,-0.2138,-0.2105,-0.2105,-0.2105,-0.2105,-0.2105,-0.2105,-0.157,-0.1567,-0.1587,-0.1583,-0.1611,-0.1597,-0.1617,-0.1659,-0.1745,-0.1879,-0.2029,-0.2204,-0.2248,-0.2398,-0.2291,-0.2182,-0.2086,-0.2038,-0.204,-0.2109,-0.2118,-0.2126,-0.2086,-0.2043,-0.2043,-0.1836,-0.1835,-0.1834]},{"header":{"parameterUnit":"m.s-1","parameterCategory":2,"la1":30.2991,"la2":30.254,"lo1":-89.0895,"lo2":-89.0444,"dy":0.0017,"dx":0.0017,"nx":28,"ny":28,"refTime":"2024-10-05T09:00:00:Z","depth":"0","parameterNumber":3,"parameterNumberName":"V-component_of_CURRENTS"},"data":[0,0,0,0,0,0,0,0,0,0,0,0,0,0,0,0,0,0,0,0,0,0,0,0,0,0,0,0,0,0,0,0,0,0,0,0,0,0,0,0,0,0,0,0,0,0,0,0,0,0,0,0,0,0,0,0,0,0,-0.01,-0.0099,0,-0.0019,-0.0018,-0.0017,0.0027,0.0027,0.0027,0.0028,0.0118,0.0121,0.0123,0,0,0,0,0,0,0,0,0,0,0,0,0,-0.0169,-0.0169,-0.01,-0.0099,-0.0098,-0.0019,-0.0018,-0.0017,0.0027,0.0027,0.0027,0.0028,0.0117,0.012,0.0123,0,0,0,0,0,0,0,0,0,0,0,0,0,-0.0119,-0.0168,-0.01,-0.0067,-0.0063,-0.0019,-0.0018,-0.0016,0.0027,0.0027,0.0028,0.0028,0.0117,0.012,0.0123,0.0143,0,0,0.0134,0.0136,0,0,0,0,0,0,0,0,-0.0122,-0.0116,-0.0073,-0.0069,-0.0065,-0.0006,-0.0009,0.0037,0.0027,-0.0006,0.0028,0.0028,0.0077,0.0084,0.01,0.0148,0.0151,0.0135,0.0137,0.0138,0.0139,0,0,0,0,0,0,0,-0.0125,-0.0119,-0.0067,-0.0072,-0.0067,-0.004,-0.0033,0.0,0.0034,-0.0003,-0.0,0.0008,0.0079,0.0096,0.0102,0.0153,0.0134,0.0138,0.014,0.0141,0.0233,0.0234,0,0,0,0,0,0,-0.0139,-0.0123,-0.007,-0.0065,-0.0094,-0.0039,-0.0031,-0.0025,0.0034,0.0043,0.0008,0.001,0.009,0.0098,0.0105,0.0134,0.0138,0.0142,0.0144,0.0233,0.0233,0.0234,0,0,0,0,0,0,-0.0141,-0.0135,-0.0073,-0.0092,-0.0082,-0.0038,-0.0031,-0.0023,-0.0007,0.0042,0.0051,0.0016,0.009,0.01,0.0136,0.0138,0.0143,0.0146,0.0233,0.0233,0.0234,0.019,0,0,0,0,0,0,-0.0143,-0.0136,-0.0138,-0.0093,-0.0082,-0.0053,-0.0031,-0.0022,-0.0002,0.0001,0.0052,0.0061,0.0091,0.013,0.0139,0.0143,0.0149,0.0232,0.0233,0.0234,0.0191,0.0189,0.0187,0,0,0,0,0,-0.0146,-0.0151,-0.0138,-0.0132,-0.0085,-0.0053,-0.0045,-0.0012,-0.0002,0.0003,0.004,0.0059,0.0141,0.0134,0.0144,0.0148,0.0232,0.0233,0.0233,0.0192,0.0189,0.0187,0,0,0,0,0,0,-0.0183,-0.0145,-0.0131,-0.0125,-0.0094,-0.0046,-0.004,-0.0016,0.0018,0.0019,0.0065,0.0076,0.0108,0.0135,0.0126,0.0177,0.0189,0.0192,0.0154,0.0152,0.015,0.0134,0.0152,0,0,0,0,0,-0.0193,-0.0187,-0.0144,-0.014,-0.0127,-0.0084,-0.0068,-0.0045,-0.0009,0.0006,0.0044,0.0083,0.012,0.014,0.0175,0.0203,0.0229,0.0213,0.0211,0.0209,0.0204,0.0242,0.0243,0.0236,0.0236,0.0236,0,0,-0.0207,-0.0185,-0.0182,-0.0148,-0.0122,-0.0108,-0.0074,-0.0054,-0.004,0.0011,0.0038,0.0077,0.0126,0.0158,0.0175,0.0181,0.0227,0.021,0.0208,0.0204,0.0243,0.0244,0.0244,0.0237,0.0237,0.0237,0,0,-0.0234,-0.0213,-0.0217,-0.0194,-0.0159,-0.013,-0.0127,-0.008,-0.0057,-0.0023,0.0016,0.0056,0.011,0.0148,0.0173,0.0182,0.0214,0.0193,0.0172,0.0209,0.0209,0.021,0.0246,0.025,0.0193,0.0193,0.0193,0,-0.0254,-0.0252,-0.0213,-0.0209,-0.0198,-0.0144,-0.0147,-0.0111,-0.0058,-0.004,-0.0023,0.0065,0.0106,0.015,0.0155,0.0177,0.0201,0.0174,0.0205,0.0206,0.0208,0.0244,0.025,0.0191,0.0191,0.0191,0.0191,0,-0.028,-0.0278,-0.0279,-0.0257,-0.0238,-0.0231,-0.0181,-0.0156,-0.0122,-0.0084,-0.0034,0.0031,0.008,0.0104,0.0133,0.0167,0.0182,0.0195,0.0206,0.0205,0.0245,0.0251,0.0188,0.0188,0.0189,0.019,0,0,-0.0324,-0.0304,-0.0304,-0.0312,-0.0266,-0.0259,-0.0229,-0.0191,-0.0178,-0.0113,-0.009,-0.0011,0.0026,0.0058,0.0107,0.0145,0.0182,0.017,0.0172,0.0197,0.0262,0.0316,0.0329,0.0197,0.0198,0.0199,0.0285,0,-0.0359,-0.0378,-0.0349,-0.0366,-0.0374,-0.0319,-0.0302,-0.0258,-0.0207,-0.0168,-0.0087,-0.0045,0.0009,0.0031,0.008,0.0158,0.0196,0.0157,0.0266,0.0269,0.0311,0.0337,0.0373,0.0457,0.0292,0.0293,0.0293,0,-0.0391,-0.0405,-0.0431,-0.0434,-0.0432,-0.0426,-0.0395,-0.037,-0.0291,-0.0253,-0.0184,-0.0119,-0.0037,-0.0001,0.0134,0.0105,0.0174,0.0235,0.024,0.0309,0.0336,0.0432,0.0475,0.0636,0.0303,0.0303,0.0302,0,-0.0452,-0.0462,-0.0493,-0.0491,-0.0477,-0.0476,-0.0461,-0.0398,-0.0385,-0.0302,-0.0282,-0.017,-0.0119,-0.001,0.0136,0.0128,0.028,0.0285,0.04,0.0405,0.0467,0.0476,0.0671,0.0364,0.0364,0.0364,0.0364,0,-0.05,-0.0524,-0.0527,-0.0544,-0.0585,-0.0543,-0.0559,-0.0519,-0.0466,-0.0456,-0.0334,-0.0296,-0.0122,-0.0005,0.0119,0.0294,0.0272,0.0405,0.0435,0.0455,0.0461,0.0629,0.0679,0.0367,0.0366,0.0366,0.0365,0,-0.0552,-0.055,-0.0596,-0.0607,-0.0613,-0.0641,-0.0638,-0.0646,-0.0577,-0.0556,-0.0535,-0.039,-0.0225,-0.0038,0.015,0.0272,0.0527,0.049,0.0506,0.0538,0.0791,0.0835,0.1033,0.1098,0.0629,0.0631,0.0632,0,-0.0579,-0.0606,-0.0656,-0.0696,-0.0703,-0.0733,-0.0756,-0.071,-0.0712,-0.0612,-0.0611,-0.0443,-0.0315,0.0007,0.026,0.051,0.0608,0.0674,0.0671,0.0826,0.0898,0.0925,0.0966,0.0736,0.0739,0.0741,0.0742,0,-0.0637,-0.0653,-0.0696,-0.0783,-0.0828,-0.0879,-0.0899,-0.0914,-0.085,-0.0814,-0.0726,-0.0609,-0.026,0.0061,0.0411,0.0559,0.0793,0.0721,0.0882,0.1005,0.1047,0.1116,0.0656,0.0759,0.0758,0.0756,0.0755,0.0755,-0.0678,-0.0732,-0.0796,-0.0878,-0.0941,-0.1009,-0.1048,-0.1052,-0.1053,-0.0971,-0.0828,-0.062,-0.0109,0.0402,0.0584,0.1001,0.094,0.1114,0.1156,0.1171,0.1241,0.0821,0.0959,0.0958,0.0957,0.0957,0.0957,0,-0.0734,-0.0798,-0.0888,-0.099,-0.108,-0.1083,-0.1137,-0.1163,-0.1171,-0.1033,-0.0909,-0.0355,0.0147,0.0616,0.1216,0.1431,0.1455,0.1533,0.1586,0.1605,0.1249,0.1263,0.1472,0.1472,0.1472,0.1472,0.1472,0.1472,-0.0767,-0.0866,-0.0924,-0.1092,-0.1159,-0.1255,-0.1285,-0.1303,-0.1229,-0.1003,-0.0701,-0.0444,0.028,0.1266,0.1816,0.1856,0.1998,0.1994,0.2061,0.1832,0.1796,0.1761,0.1791,0.2108,0.2108,0.2403,0.2406,0.2409]}],[{"header":{"parameterUnit":"m.s-1","parameterCategory":2,"la1":30.2991,"la2":30.254,"lo1":-89.0895,"lo2":-89.0444,"dy":0.0017,"dx":0.0017,"nx":28,"ny":28,"refTime":"2024-10-05T09:00:00:Z","depth":"2","parameterNumber":2,"parameterNumberName":"U-component_of_CURRENTS"},"data":[0,0,0,0,0,0,0,0,0,0,0,0,0,0,0,0,0,0,0,0,0,0,0,0,0,0,0,0,0,0,0,0,0,0,0,0,0,0,0,0,0,0,0,0,0,0,0,0,0,0,0,0,0,0,0,0,0,0,-0.168,-0.168,0,-0.17,-0.17,-0.17,-0.1686,-0.1686,-0.1686,-0.1685,-0.166,-0.166,-0.1659,0,0,0,0,0,0,0,0,0,0,0,0,0,-0.1605,-0.1606,-0.168,-0.168,-0.1681,-0.17,-0.17,-0.17,-0.1686,-0.1686,-0.1686,-0.1685,-0.166,-0.166,-0.1659,0,0,0,0,0,0,0,0,0,0,0,0,0,-0.1629,-0.1606,-0.168,-0.1679,-0.1679,-0.17,-0.17,-0.17,-0.1686,-0.1686,-0.1685,-0.1685,-0.166,-0.166,-0.1659,-0.1666,0,0,-0.1658,-0.1657,0,0,0,0,0,0,0,0,-0.1628,-0.1632,-0.1678,-0.1679,-0.1679,-0.1693,-0.1664,-0.1688,-0.1687,-0.168,-0.1685,-0.1685,-0.1669,-0.1668,-0.1669,-0.1665,-0.1664,-0.1658,-0.1657,-0.1657,-0.1657,0,0,0,0,0,0,0,-0.1626,-0.1631,-0.1685,-0.1679,-0.168,-0.1669,-0.1672,-0.1669,-0.1674,-0.1681,-0.1681,-0.1688,-0.1669,-0.167,-0.1668,-0.1664,-0.1658,-0.1657,-0.1657,-0.1657,-0.1681,-0.1682,0,0,0,0,0,0,-0.1632,-0.163,-0.1684,-0.1686,-0.1655,-0.1671,-0.1674,-0.1687,-0.1675,-0.1674,-0.1688,-0.1687,-0.1671,-0.1669,-0.1667,-0.1695,-0.1657,-0.1657,-0.1656,-0.168,-0.1681,-0.1682,0,0,0,0,0,0,-0.1631,-0.1637,-0.1683,-0.166,-0.1665,-0.1673,-0.1687,-0.1687,-0.1693,-0.1682,-0.1679,-0.1695,-0.167,-0.1668,-0.1675,-0.1693,-0.1656,-0.1656,-0.1679,-0.168,-0.1682,-0.1736,0,0,0,0,0,0,-0.1628,-0.1636,-0.1644,-0.1661,-0.1667,-0.1705,-0.1688,-0.1688,-0.1699,-0.1698,-0.1687,-0.1684,-0.167,-0.1676,-0.1674,-0.1691,-0.1655,-0.1678,-0.1679,-0.1681,-0.1733,-0.1739,-0.1745,0,0,0,0,0,-0.1626,-0.1642,-0.1645,-0.1651,-0.1679,-0.1706,-0.1709,-0.1709,-0.17,-0.171,-0.1703,-0.1684,-0.1686,-0.1676,-0.1674,-0.1691,-0.1677,-0.1679,-0.1681,-0.1731,-0.1738,-0.1745,0,0,0,0,0,0,-0.161,-0.1643,-0.1646,-0.167,-0.1691,-0.1705,-0.1713,-0.1716,-0.1718,-0.1713,-0.1697,-0.1694,-0.1706,-0.1693,-0.1683,-0.1704,-0.1678,-0.168,-0.1717,-0.1724,-0.1729,-0.1735,-0.1655,0,0,0,0,0,-0.1613,-0.1632,-0.1661,-0.1679,-0.1691,-0.1703,-0.1712,-0.1718,-0.1725,-0.1725,-0.1719,-0.1713,-0.1714,-0.1714,-0.1711,-0.1723,-0.1722,-0.1733,-0.1739,-0.1744,-0.1747,-0.1762,-0.177,-0.1689,-0.1689,-0.1689,0,0,-0.1609,-0.1631,-0.164,-0.1676,-0.1688,-0.1717,-0.1707,-0.1729,-0.175,-0.1722,-0.1741,-0.1733,-0.1722,-0.1737,-0.1741,-0.1727,-0.177,-0.1746,-0.1751,-0.1752,-0.1766,-0.1773,-0.178,-0.1691,-0.169,-0.169,0,0,-0.1617,-0.1634,-0.1656,-0.168,-0.1711,-0.1725,-0.1736,-0.1759,-0.1767,-0.1787,-0.1773,-0.1779,-0.1778,-0.1779,-0.1778,-0.1814,-0.18,-0.1811,-0.1844,-0.1859,-0.1866,-0.1872,-0.1897,-0.1905,-0.1814,-0.1814,-0.1814,0,-0.1611,-0.1645,-0.1665,-0.1696,-0.1718,-0.1733,-0.1763,-0.178,-0.1801,-0.1814,-0.1799,-0.1814,-0.18,-0.1827,-0.1835,-0.1828,-0.1835,-0.1819,-0.1867,-0.1873,-0.1878,-0.1902,-0.191,-0.1817,-0.1816,-0.1816,-0.1816,0,-0.1638,-0.1667,-0.1683,-0.1729,-0.1756,-0.1784,-0.1818,-0.1841,-0.1849,-0.1863,-0.189,-0.1879,-0.1885,-0.1886,-0.1867,-0.1901,-0.1895,-0.1873,-0.185,-0.1889,-0.1913,-0.192,-0.1821,-0.182,-0.1819,-0.1818,0,0,-0.1618,-0.1689,-0.1693,-0.1723,-0.1776,-0.1804,-0.1847,-0.1892,-0.1925,-0.1936,-0.1975,-0.1971,-0.1962,-0.196,-0.1945,-0.1957,-0.1998,-0.193,-0.1929,-0.1956,-0.2042,-0.2035,-0.2042,-0.1982,-0.1983,-0.1984,-0.205,0,-0.1631,-0.1691,-0.1726,-0.1783,-0.1817,-0.1855,-0.1899,-0.1941,-0.1968,-0.201,-0.2011,-0.2034,-0.1993,-0.1998,-0.2003,-0.1996,-0.2016,-0.1982,-0.1998,-0.1999,-0.1989,-0.2049,-0.1877,-0.192,-0.2057,-0.2058,-0.2059,0,-0.1643,-0.1685,-0.1741,-0.182,-0.1839,-0.1875,-0.1949,-0.199,-0.2051,-0.2073,-0.2096,-0.2099,-0.2118,-0.2076,-0.2092,-0.2071,-0.2061,-0.2057,-0.2059,-0.2035,-0.2005,-0.19,-0.1928,-0.207,-0.2069,-0.2068,-0.2068,0,-0.1615,-0.1695,-0.1738,-0.1764,-0.1854,-0.1886,-0.1931,-0.2001,-0.2045,-0.2109,-0.2145,-0.2166,-0.218,-0.2172,-0.2153,-0.2124,-0.2179,-0.2136,-0.213,-0.2129,-0.1978,-0.1962,-0.2159,-0.2159,-0.2159,-0.2159,-0.2159,0,-0.1613,-0.165,-0.1727,-0.1752,-0.1812,-0.1876,-0.1942,-0.1993,-0.2072,-0.213,-0.2164,-0.2209,-0.2202,-0.2229,-0.2198,-0.2196,-0.2214,-0.2155,-0.2151,-0.1995,-0.1981,-0.2096,-0.2087,-0.2161,-0.2161,-0.216,-0.216,0,-0.1573,-0.1626,-0.168,-0.1769,-0.1799,-0.1836,-0.194,-0.1987,-0.2068,-0.2146,-0.2168,-0.2247,-0.228,-0.2288,-0.2294,-0.2257,-0.2254,-0.2249,-0.2078,-0.2053,-0.2183,-0.2177,-0.2248,-0.2248,-0.2248,-0.2249,-0.2249,0,-0.1559,-0.1579,-0.167,-0.1699,-0.1736,-0.1805,-0.1853,-0.196,-0.2014,-0.2162,-0.2193,-0.2276,-0.2314,-0.2347,-0.2306,-0.2289,-0.229,-0.2118,-0.2028,-0.2206,-0.2195,-0.2188,-0.2181,-0.1851,-0.1848,-0.1846,-0.1844,0,-0.152,-0.1547,-0.1589,-0.1643,-0.1694,-0.1761,-0.1839,-0.1889,-0.2019,-0.2095,-0.2198,-0.2251,-0.2311,-0.223,-0.223,-0.2173,-0.2104,-0.2069,-0.2297,-0.1864,-0.1839,-0.1826,-0.1831,-0.1821,-0.1824,-0.1825,-0.1826,-0.1827,-0.1479,-0.1489,-0.1533,-0.1579,-0.1638,-0.1692,-0.171,-0.1811,-0.1894,-0.1991,-0.2116,-0.2148,-0.2157,-0.2084,-0.2001,-0.192,-0.2045,-0.1915,-0.1919,-0.1926,-0.1878,-0.1855,-0.1832,-0.1834,-0.1836,-0.1838,-0.1839,0,-0.1413,-0.143,-0.1466,-0.1515,-0.1533,-0.1596,-0.1675,-0.1676,-0.173,-0.1854,-0.1931,-0.1816,-0.1807,-0.1803,-0.1673,-0.1657,-0.1586,-0.1555,-0.1452,-0.1477,-0.1498,-0.1423,-0.1259,-0.1257,-0.1255,-0.1254,0,0,-0.1382,-0.1379,-0.1394,-0.1391,-0.1419,-0.1407,-0.1424,-0.1447,-0.1501,-0.1526,-0.156,-0.1754,-0.1795,-0.1548,-0.1478,-0.1352,-0.1386,-0.1278,-0.1748,-0.1653,-0.1671,-0.1717,-0.1632,0,0,0,0,0]},{"header":{"parameterUnit":"m.s-1","parameterCategory":2,"la1":30.2991,"la2":30.254,"lo1":-89.0895,"lo2":-89.0444,"dy":0.0017,"dx":0.0017,"nx":28,"ny":28,"refTime":"2024-10-05T09:00:00:Z","depth":"2","parameterNumber":3,"parameterNumberName":"V-component_of_CURRENTS"},"data":[0,0,0,0,0,0,0,0,0,0,0,0,0,0,0,0,0,0,0,0,0,0,0,0,0,0,0,0,0,0,0,0,0,0,0,0,0,0,0,0,0,0,0,0,0,0,0,0,0,0,0,0,0,0,0,0,0,0,-0.0055,-0.0055,0,0.0017,0.0018,0.0018,0.0061,0.0061,0.0061,0.0061,0.0144,0.0146,0.0148,0,0,0,0,0,0,0,0,0,0,0,0,0,-0.0113,-0.0113,-0.0056,-0.0055,-0.0054,0.0017,0.0018,0.0019,0.0061,0.0061,0.0061,0.0061,0.0143,0.0145,0.0148,0,0,0,0,0,0,0,0,0,0,0,0,0,-0.0069,-0.0112,-0.0056,-0.0025,-0.0021,0.0016,0.0018,0.0019,0.0061,0.0061,0.0061,0.0061,0.0142,0.0145,0.0148,0.0164,0,0,0.0158,0.0159,0,0,0,0,0,0,0,0,-0.0072,-0.0067,-0.003,-0.0027,-0.0023,0.0029,0.0028,0.0068,0.0061,0.003,0.0061,0.0061,0.0106,0.0112,0.0126,0.0168,0.0171,0.0158,0.016,0.0161,0.0162,0,0,0,0,0,0,0,-0.0075,-0.0069,-0.0026,-0.0029,-0.0025,0.0,0.0007,0.0036,0.0067,0.0033,0.0036,0.0043,0.0108,0.0123,0.0128,0.0173,0.0158,0.0161,0.0163,0.0164,0.0244,0.0244,0,0,0,0,0,0,-0.0087,-0.0073,-0.0029,-0.0024,-0.0048,0.0001,0.0008,0.0013,0.0066,0.0075,0.0043,0.0045,0.0117,0.0124,0.0131,0.0156,0.0161,0.0164,0.0166,0.0244,0.0244,0.0244,0,0,0,0,0,0,-0.0089,-0.0084,-0.0032,-0.0047,-0.0039,0.0001,0.0007,0.0014,0.0029,0.0074,0.0082,0.0049,0.0118,0.0127,0.0158,0.0159,0.0166,0.0169,0.0244,0.0244,0.0244,0.0203,0,0,0,0,0,0,-0.0091,-0.0085,-0.0088,-0.0048,-0.0038,-0.0016,0.0007,0.0016,0.0032,0.0036,0.0082,0.009,0.0119,0.0153,0.0161,0.0164,0.0171,0.0243,0.0244,0.0244,0.0204,0.0202,0.02,0,0,0,0,0,-0.0093,-0.0101,-0.0088,-0.0083,-0.0043,-0.0016,-0.0009,0.0021,0.0032,0.0035,0.007,0.0089,0.0162,0.0156,0.0165,0.0169,0.0243,0.0244,0.0244,0.0205,0.0202,0.02,0,0,0,0,0,0,-0.0129,-0.0096,-0.0082,-0.0079,-0.0052,-0.0009,-0.0005,0.0017,0.0047,0.005,0.0093,0.0103,0.0131,0.0156,0.0148,0.0194,0.0205,0.0208,0.0172,0.017,0.0168,0.0156,0.0174,0,0,0,0,0,-0.0138,-0.0134,-0.0097,-0.0096,-0.0084,-0.0045,-0.0031,-0.001,0.0023,0.0036,0.007,0.0107,0.0141,0.0159,0.0191,0.0215,0.0242,0.0224,0.0222,0.022,0.0217,0.0257,0.0258,0.0246,0.0246,0.0246,0,0,-0.0153,-0.0134,-0.0132,-0.0103,-0.008,-0.0069,-0.0037,-0.002,-0.0007,0.004,0.0064,0.01,0.0146,0.0174,0.0189,0.0195,0.0238,0.0221,0.0219,0.0217,0.0258,0.0259,0.026,0.0247,0.0247,0.0247,0,0,-0.0181,-0.0162,-0.0168,-0.0148,-0.0118,-0.0091,-0.0089,-0.0047,-0.0026,0.0003,0.0042,0.0079,0.0126,0.0163,0.0187,0.0193,0.0225,0.0202,0.0184,0.0222,0.0223,0.0225,0.026,0.0265,0.0202,0.0202,0.0202,0,-0.0201,-0.0201,-0.0166,-0.0165,-0.0155,-0.0105,-0.0109,-0.0077,-0.0029,-0.0012,0.0003,0.0085,0.0122,0.0166,0.0169,0.0189,0.0213,0.0187,0.0219,0.0221,0.0223,0.0259,0.0265,0.02,0.02,0.02,0.0201,0,-0.0229,-0.0229,-0.0231,-0.0213,-0.0196,-0.0192,-0.0146,-0.0123,-0.0091,-0.0055,-0.0007,0.0052,0.0099,0.012,0.0147,0.0183,0.0196,0.0209,0.0221,0.0221,0.026,0.0267,0.0197,0.0198,0.0199,0.0199,0,0,-0.0274,-0.0257,-0.0258,-0.0264,-0.0223,-0.0217,-0.019,-0.0155,-0.014,-0.0081,-0.0057,0.0015,0.0051,0.0081,0.0127,0.0166,0.0204,0.0188,0.0191,0.0217,0.0287,0.0328,0.0339,0.022,0.0221,0.0221,0.0308,0,-0.0309,-0.0329,-0.0302,-0.0319,-0.0327,-0.0275,-0.0259,-0.0217,-0.0169,-0.013,-0.0053,-0.0013,0.0036,0.0058,0.0106,0.0181,0.022,0.0179,0.0289,0.0292,0.0323,0.0348,0.0314,0.0391,0.0315,0.0316,0.0317,0,-0.0343,-0.0355,-0.0381,-0.038,-0.0379,-0.0374,-0.0342,-0.0319,-0.0243,-0.0206,-0.0139,-0.0077,0.0003,0.0034,0.0167,0.0137,0.0204,0.0262,0.0267,0.0324,0.0346,0.038,0.0406,0.0329,0.0328,0.0327,0.0326,0,-0.0399,-0.0409,-0.0437,-0.0435,-0.0421,-0.042,-0.0405,-0.0344,-0.0331,-0.025,-0.023,-0.0121,-0.0071,0.0035,0.0172,0.0165,0.0313,0.0319,0.042,0.0423,0.0426,0.0429,0.0399,0.0399,0.0399,0.0399,0.0399,0,-0.0445,-0.0467,-0.0468,-0.0484,-0.0521,-0.0482,-0.0495,-0.0457,-0.0405,-0.0393,-0.0277,-0.0237,-0.0072,0.0041,0.0159,0.0323,0.0309,0.0425,0.0453,0.0412,0.0412,0.0381,0.0378,0.0402,0.0401,0.0401,0.04,0,-0.0494,-0.0492,-0.0533,-0.0542,-0.0548,-0.0573,-0.057,-0.0576,-0.051,-0.0488,-0.0467,-0.0324,-0.0168,0.0008,0.019,0.0303,0.0453,0.0507,0.0453,0.0474,0.0537,0.053,0.0627,0.063,0.0632,0.0633,0.0635,0,-0.0519,-0.0544,-0.0589,-0.0626,-0.0633,-0.0661,-0.0682,-0.0637,-0.0637,-0.0538,-0.0535,-0.0376,-0.0255,0.0049,0.0278,0.0507,0.0498,0.06,0.0586,0.0545,0.0562,0.0553,0.0544,0.0572,0.0573,0.0573,0.0574,0,-0.0573,-0.0589,-0.0627,-0.0709,-0.075,-0.0797,-0.0815,-0.0827,-0.0765,-0.073,-0.0644,-0.0533,-0.0215,0.0051,0.0369,0.0496,0.0567,0.062,0.0599,0.0522,0.0501,0.0515,0.0507,0.0579,0.0579,0.0578,0.0578,0.0578,-0.0612,-0.0662,-0.072,-0.0797,-0.0856,-0.0918,-0.0953,-0.0955,-0.0953,-0.0875,-0.0742,-0.0553,-0.0255,0.0192,0.0422,0.0638,0.0638,0.0683,0.0677,0.0672,0.0652,0.0636,0.0736,0.0737,0.0737,0.0737,0.0738,0,-0.0663,-0.0723,-0.0806,-0.0899,-0.0983,-0.0989,-0.1036,-0.1055,-0.106,-0.094,-0.0827,-0.0505,-0.0161,0.0145,0.05,0.0715,0.0688,0.0732,0.0656,0.0651,0.0646,0.0622,0.0699,0.07,0.07,0.07,0,0,-0.0694,-0.0784,-0.0837,-0.0993,-0.1058,-0.1147,-0.1174,-0.1182,-0.1117,-0.1018,-0.0853,-0.0582,-0.0177,0.0061,0.0342,0.0525,0.0516,0.0531,0.0541,0.0412,0.0403,0.0604,0.0559,0,0,0,0,0]}],[{"header":{"parameterUnit":"m.s-1","parameterCategory":2,"la1":30.2991,"la2":30.254,"lo1":-89.0895,"lo2":-89.0444,"dy":0.0017,"dx":0.0017,"nx":28,"ny":28,"refTime":"2024-10-05T09:00:00:Z","depth":"4","parameterNumber":2,"parameterNumberName":"U-component_of_CURRENTS"},"data":[0,0,0,0,0,0,0,0,0,0,0,0,0,0,0,0,0,0,0,0,0,0,0,0,0,0,0,0,0,0,0,0,0,0,0,0,0,0,0,0,0,0,0,0,0,0,0,0,0,0,0,0,0,0,0,0,0,0,-0.1225,-0.1225,0,-0.1271,-0.1271,-0.1271,-0.1301,-0.1301,-0.1301,-0.1302,-0.1333,-0.1333,-0.1333,0,0,0,0,0,0,0,0,0,0,0,0,0,-0.1138,-0.114,-0.1225,-0.1225,-0.1226,-0.1271,-0.1271,-0.1271,-0.1301,-0.1301,-0.1302,-0.1302,-0.1332,-0.1333,-0.1334,0,0,0,0,0,0,0,0,0,0,0,0,0,-0.1177,-0.114,-0.1225,-0.1248,-0.125,-0.127,-0.1271,-0.1271,-0.1301,-0.1301,-0.1302,-0.1302,-0.1332,-0.1333,-0.1334,-0.1327,0,0,-0.1336,-0.1336,0,0,0,0,0,0,0,0,-0.1175,-0.118,-0.1244,-0.1246,-0.1249,-0.1282,-0.1252,-0.129,-0.13,-0.1279,-0.1302,-0.1302,-0.1315,-0.1317,-0.1322,-0.1328,-0.133,-0.1336,-0.1336,-0.1337,-0.1337,0,0,0,0,0,0,0,-0.1172,-0.1178,-0.1241,-0.1244,-0.1248,-0.1248,-0.1254,-0.1259,-0.1292,-0.1281,-0.1284,-0.1292,-0.1317,-0.1321,-0.1323,-0.133,-0.1336,-0.1336,-0.1337,-0.1337,-0.1396,-0.1397,0,0,0,0,0,0,-0.1172,-0.1176,-0.1239,-0.1242,-0.1215,-0.1249,-0.1256,-0.1269,-0.1292,-0.1297,-0.1292,-0.1293,-0.132,-0.1322,-0.1324,-0.1379,-0.1337,-0.1337,-0.1338,-0.1395,-0.1396,-0.1398,0,0,0,0,0,0,-0.117,-0.1177,-0.1237,-0.1211,-0.1219,-0.125,-0.1265,-0.127,-0.1298,-0.1301,-0.1305,-0.1317,-0.132,-0.1323,-0.1352,-0.1378,-0.1338,-0.1338,-0.1394,-0.1395,-0.1397,-0.145,0,0,0,0,0,0,-0.1167,-0.1176,-0.1194,-0.1212,-0.1221,-0.1266,-0.1265,-0.1271,-0.1301,-0.1305,-0.1323,-0.1325,-0.1321,-0.1351,-0.1353,-0.1379,-0.1339,-0.1392,-0.1394,-0.1396,-0.1447,-0.1453,-0.1459,0,0,0,0,0,-0.1164,-0.1183,-0.1194,-0.1202,-0.1241,-0.1267,-0.1272,-0.1294,-0.1302,-0.1319,-0.1334,-0.1326,-0.1366,-0.1353,-0.1354,-0.1381,-0.1391,-0.1394,-0.1396,-0.1444,-0.1452,-0.1459,0,0,0,0,0,0,-0.1153,-0.1188,-0.1201,-0.123,-0.1256,-0.1273,-0.1293,-0.1306,-0.1331,-0.1339,-0.134,-0.1343,-0.1378,-0.1372,-0.1358,-0.1404,-0.1377,-0.138,-0.1413,-0.1421,-0.1426,-0.1432,-0.1339,0,0,0,0,0,-0.1159,-0.1185,-0.1214,-0.1239,-0.1254,-0.1277,-0.1294,-0.131,-0.1331,-0.1343,-0.1358,-0.1372,-0.1386,-0.1398,-0.1407,-0.1432,-0.1431,-0.1451,-0.1457,-0.1462,-0.1468,-0.1487,-0.1495,-0.1406,-0.1406,-0.1406,0,0,-0.1161,-0.1185,-0.1199,-0.1239,-0.1259,-0.1288,-0.1289,-0.1322,-0.1352,-0.1341,-0.1389,-0.1394,-0.1397,-0.1428,-0.1443,-0.1429,-0.1489,-0.1465,-0.147,-0.1473,-0.149,-0.1499,-0.1507,-0.1408,-0.1407,-0.1407,0,0,-0.1171,-0.1201,-0.1224,-0.125,-0.129,-0.1307,-0.1323,-0.1357,-0.1381,-0.1419,-0.1422,-0.1446,-0.1469,-0.1479,-0.1484,-0.1528,-0.1519,-0.1533,-0.1571,-0.1589,-0.1597,-0.1603,-0.162,-0.1628,-0.1537,-0.1537,-0.1537,0,-0.1174,-0.1209,-0.1235,-0.1265,-0.1293,-0.132,-0.1353,-0.1379,-0.1421,-0.1445,-0.1444,-0.1492,-0.1493,-0.1531,-0.1546,-0.1543,-0.1551,-0.1542,-0.1597,-0.1603,-0.1609,-0.1625,-0.1633,-0.154,-0.154,-0.1539,-0.1539,0,-0.1196,-0.1235,-0.1252,-0.1302,-0.1334,-0.1367,-0.1408,-0.1446,-0.1476,-0.15,-0.1553,-0.1559,-0.1585,-0.1592,-0.1582,-0.1628,-0.162,-0.1602,-0.1578,-0.1621,-0.1635,-0.1643,-0.1544,-0.1543,-0.1542,-0.1542,0,0,-0.1176,-0.1253,-0.1262,-0.1298,-0.1359,-0.1388,-0.1444,-0.1501,-0.1546,-0.1581,-0.1636,-0.1657,-0.1663,-0.1669,-0.1666,-0.1683,-0.1728,-0.1664,-0.1664,-0.168,-0.1775,-0.1677,-0.1675,-0.1721,-0.1723,-0.1724,-0.1771,0,-0.1188,-0.125,-0.1289,-0.1355,-0.1391,-0.1443,-0.1495,-0.1551,-0.1596,-0.1655,-0.1675,-0.1718,-0.1692,-0.1711,-0.1725,-0.1728,-0.1749,-0.1717,-0.1731,-0.1732,-0.1638,-0.168,-0.1728,-0.1777,-0.1778,-0.1779,-0.178,0,-0.1193,-0.1239,-0.1304,-0.1394,-0.1416,-0.1462,-0.1555,-0.1605,-0.1685,-0.1721,-0.1764,-0.1782,-0.182,-0.1788,-0.1818,-0.1801,-0.1795,-0.1793,-0.1794,-0.1687,-0.1645,-0.1722,-0.1792,-0.1791,-0.1791,-0.179,-0.1789,0,-0.116,-0.1249,-0.1305,-0.1335,-0.1436,-0.1483,-0.1539,-0.1625,-0.1677,-0.1763,-0.1807,-0.185,-0.1879,-0.1881,-0.1873,-0.1852,-0.1904,-0.1871,-0.1781,-0.1774,-0.1825,-0.1818,-0.1897,-0.1897,-0.1897,-0.1897,-0.1897,0,-0.1147,-0.1197,-0.1299,-0.133,-0.1405,-0.1479,-0.1562,-0.1624,-0.1716,-0.1776,-0.1834,-0.1876,-0.1904,-0.1932,-0.191,-0.1867,-0.1932,-0.1796,-0.1781,-0.1847,-0.1842,-0.1831,-0.1822,-0.1899,-0.1898,-0.1898,-0.1898,0,-0.11,-0.1168,-0.1239,-0.1351,-0.1391,-0.1443,-0.1567,-0.1618,-0.1715,-0.1795,-0.1825,-0.1911,-0.1936,-0.1958,-0.1972,-0.1904,-0.1881,-0.1853,-0.1941,-0.1929,-0.173,-0.1724,-0.1748,-0.1745,-0.1742,-0.174,-0.1738,0,-0.108,-0.1111,-0.1236,-0.1277,-0.1331,-0.1421,-0.1479,-0.1598,-0.1649,-0.1797,-0.182,-0.1901,-0.1938,-0.1883,-0.1909,-0.1876,-0.1847,-0.1829,-0.1757,-0.1733,-0.1716,-0.1714,-0.1712,-0.1734,-0.1733,-0.1732,-0.1732,0,-0.1036,-0.1088,-0.1143,-0.122,-0.129,-0.1366,-0.1455,-0.149,-0.1622,-0.1729,-0.1771,-0.1788,-0.1823,-0.1814,-0.1812,-0.1781,-0.1833,-0.1801,-0.1805,-0.1737,-0.1716,-0.1702,-0.1703,-0.1723,-0.1724,-0.1725,-0.1725,0,-0.1001,-0.1021,-0.109,-0.1149,-0.1232,-0.1279,-0.1346,-0.141,-0.1479,-0.164,-0.1651,-0.1733,-0.1814,-0.1768,-0.1763,-0.1729,-0.1685,-0.1617,-0.1629,-0.164,-0.1578,-0.1534,-0.1478,0,0,0,0,0,-0.0954,-0.0964,-0.1011,-0.1072,-0.1147,-0.1191,-0.1314,-0.1382,-0.1518,-0.1509,-0.1577,-0.1601,-0.1604,-0.1643,-0.1579,-0.1699,-0.1686,-0.1618,-0.1612,-0.1673,-0.1683,-0.1617,0,0,0,0,0,0,-0.0924,-0.0962,-0.0977,-0.0987,-0.1008,-0.1081,-0.1155,-0.1252,-0.1257,-0.1395,-0.1399,-0.1496,-0.1511,-0.1605,-0.154,-0.155,-0.1515,-0.1669,-0.1665,-0.1667,-0.1676,-0.1685,-0.1621,0,0,0,0,0]},{"header":{"parameterUnit":"m.s-1","parameterCategory":2,"la1":30.2991,"la2":30.254,"lo1":-89.0895,"lo2":-89.0444,"dy":0.0017,"dx":0.0017,"nx":28,"ny":28,"refTime":"2024-10-05T09:00:00:Z","depth":"4","parameterNumber":3,"parameterNumberName":"V-component_of_CURRENTS"},"data":[0,0,0,0,0,0,0,0,0,0,0,0,0,0,0,0,0,0,0,0,0,0,0,0,0,0,0,0,0,0,0,0,0,0,0,0,0,0,0,0,0,0,0,0,0,0,0,0,0,0,0,0,0,0,0,0,0,0,-0.0034,-0.0033,0,0.0016,0.0017,0.0018,0.0053,0.0054,0.0054,0.0054,0.0122,0.0124,0.0125,0,0,0,0,0,0,0,0,0,0,0,0,0,-0.0066,-0.0066,-0.0034,-0.0033,-0.0033,0.0016,0.0017,0.0018,0.0053,0.0054,0.0054,0.0054,0.0122,0.0123,0.0125,0,0,0,0,0,0,0,0,0,0,0,0,0,-0.0037,-0.0066,-0.0034,-0.001,-0.0007,0.0016,0.0017,0.0018,0.0053,0.0054,0.0054,0.0054,0.0121,0.0123,0.0126,0.0134,0,0,0.0133,0.0134,0,0,0,0,0,0,0,0,-0.0039,-0.0036,-0.0014,-0.0011,-0.0008,0.0028,0.0031,0.0057,0.0053,0.0031,0.0054,0.0054,0.0092,0.0096,0.0106,0.0137,0.014,0.0133,0.0135,0.0136,0.0136,0,0,0,0,0,0,0,-0.0041,-0.0037,-0.0013,-0.0013,-0.001,0.001,0.0014,0.0036,0.006,0.0033,0.0036,0.004,0.0093,0.0104,0.0108,0.0141,0.0133,0.0135,0.0137,0.0138,0.0199,0.02,0,0,0,0,0,0,-0.0051,-0.004,-0.0015,-0.0012,-0.0024,0.001,0.0015,0.0017,0.0059,0.0066,0.004,0.0041,0.0099,0.0105,0.011,0.013,0.0136,0.0138,0.0139,0.0199,0.02,0.02,0,0,0,0,0,0,-0.0051,-0.0049,-0.0017,-0.0025,-0.0019,0.001,0.0012,0.0018,0.0029,0.0064,0.0071,0.0045,0.01,0.0107,0.0131,0.0133,0.0139,0.0141,0.0199,0.0199,0.02,0.0165,0,0,0,0,0,0,-0.0053,-0.005,-0.0053,-0.0026,-0.0019,-0.0009,0.0012,0.0018,0.003,0.0033,0.0071,0.0077,0.0101,0.0127,0.0133,0.0136,0.0143,0.0199,0.0199,0.02,0.0166,0.0164,0.0163,0,0,0,0,0,-0.0054,-0.0063,-0.0054,-0.005,-0.0025,-0.0009,-0.0004,0.0019,0.003,0.0031,0.006,0.0076,0.0134,0.0129,0.0136,0.014,0.0199,0.0199,0.02,0.0167,0.0165,0.0163,0,0,0,0,0,0,-0.008,-0.0059,-0.0049,-0.0051,-0.0033,-0.0003,-0.0002,0.0016,0.0039,0.0043,0.0078,0.0086,0.0108,0.0129,0.0123,0.016,0.017,0.0171,0.0142,0.0141,0.0139,0.0131,0.0145,0,0,0,0,0,-0.0088,-0.0088,-0.0063,-0.0066,-0.0059,-0.0031,-0.0021,-0.0005,0.0019,0.003,0.0058,0.0088,0.0116,0.0131,0.0155,0.0174,0.02,0.0182,0.0181,0.0179,0.0178,0.0219,0.0221,0.0201,0.0201,0.0201,0,0,-0.01,-0.0088,-0.0089,-0.0071,-0.0056,-0.0051,-0.0024,-0.0015,-0.0006,0.0033,0.0051,0.0081,0.0119,0.0141,0.0153,0.0159,0.0198,0.018,0.0178,0.0178,0.022,0.0222,0.0223,0.0201,0.0201,0.0201,0,0,-0.0125,-0.0113,-0.0121,-0.0108,-0.0089,-0.007,-0.0069,-0.0039,-0.0022,-0.0002,0.0032,0.0064,0.0099,0.0132,0.0152,0.0157,0.0186,0.0163,0.015,0.019,0.0192,0.0194,0.0226,0.0231,0.0164,0.0163,0.0163,0,-0.014,-0.0145,-0.0121,-0.0124,-0.0118,-0.0081,-0.0087,-0.0063,-0.0029,-0.0013,-0.0003,0.0066,0.0096,0.0136,0.0138,0.0153,0.0176,0.0153,0.0187,0.019,0.0192,0.0225,0.0231,0.0162,0.0162,0.0162,0.0162,0,-0.0167,-0.017,-0.0175,-0.0165,-0.0155,-0.0155,-0.0121,-0.0104,-0.0079,-0.0051,-0.001,0.0039,0.008,0.0097,0.0119,0.0155,0.0165,0.0178,0.0189,0.0192,0.0227,0.0234,0.016,0.016,0.0161,0.0161,0,0,-0.0203,-0.0197,-0.0198,-0.0204,-0.0177,-0.0175,-0.0157,-0.0129,-0.0117,-0.0071,-0.0048,0.0011,0.0044,0.0069,0.0108,0.0146,0.0185,0.0165,0.0168,0.0192,0.0268,0.0256,0.0263,0.0202,0.0203,0.0204,0.0283,0,-0.0231,-0.0253,-0.0236,-0.0253,-0.0261,-0.0222,-0.0212,-0.018,-0.0141,-0.0109,-0.0042,-0.0009,0.0032,0.0051,0.0098,0.0163,0.0202,0.0162,0.0266,0.0269,0.0254,0.027,0.0207,0.0289,0.029,0.0291,0.0292,0,-0.026,-0.0272,-0.0297,-0.03,-0.03,-0.0302,-0.0277,-0.0261,-0.0198,-0.0168,-0.0109,-0.0057,0.0015,0.004,0.0163,0.0134,0.0195,0.0247,0.0252,0.0257,0.027,0.0288,0.0305,0.0304,0.0303,0.0303,0.0302,0,-0.0298,-0.0313,-0.0338,-0.0339,-0.0333,-0.0336,-0.0328,-0.028,-0.027,-0.0202,-0.0185,-0.0087,-0.0044,0.0054,0.0171,0.0165,0.03,0.0307,0.0357,0.0356,0.0358,0.0355,0.0387,0.0387,0.0387,0.0386,0.0386,0,-0.0328,-0.0349,-0.0362,-0.0376,-0.0409,-0.0384,-0.0398,-0.0369,-0.0329,-0.0318,-0.0222,-0.0183,-0.004,0.0059,0.0162,0.0285,0.0299,0.0358,0.0378,0.0341,0.0336,0.0363,0.0359,0.0389,0.0389,0.0388,0.0388,0,-0.0358,-0.0364,-0.0402,-0.0418,-0.0429,-0.0451,-0.0461,-0.0466,-0.0417,-0.0397,-0.0379,-0.0256,-0.0124,0.0023,0.0187,0.0263,0.0387,0.0424,0.0374,0.039,0.0417,0.041,0.0483,0.0483,0.0483,0.0483,0.0483,0,-0.0372,-0.0393,-0.0444,-0.0479,-0.0491,-0.0522,-0.0544,-0.0516,-0.0515,-0.0436,-0.0428,-0.0299,-0.0204,0.0021,0.0179,0.0379,0.0402,0.0461,0.044,0.0415,0.0428,0.0421,0.0414,0.0484,0.0484,0.0484,0.0484,0,-0.0401,-0.0423,-0.0456,-0.0533,-0.0576,-0.0621,-0.0644,-0.0648,-0.0603,-0.0565,-0.0469,-0.0331,-0.0183,0.0008,0.0165,0.0309,0.0422,0.0464,0.0464,0.0445,0.0417,0.0428,0.0422,0.0485,0.0485,0.0485,0.0485,0,-0.0424,-0.0461,-0.0515,-0.058,-0.0647,-0.0697,-0.0702,-0.0689,-0.0676,-0.0578,-0.0545,-0.036,-0.0248,-0.0027,0.0124,0.0261,0.0288,0.032,0.0328,0.0329,0.0262,0.0203,0.0225,0,0,0,0,0,-0.044,-0.0488,-0.0559,-0.0632,-0.0701,-0.0739,-0.076,-0.0749,-0.0702,-0.0651,-0.0596,-0.0452,-0.0209,-0.0088,0.0043,0.012,0.0306,0.0278,0.0344,0.049,0.0489,0.0435,0,0,0,0,0,0,-0.0455,-0.052,-0.0563,-0.0665,-0.0722,-0.0793,-0.081,-0.0778,-0.0735,-0.0664,-0.0535,-0.044,-0.0204,-0.0297,0.0036,0.0084,0.014,0.0402,0.0405,0.049,0.0489,0.0488,0.0433,0,0,0,0,0]}]]